Presure
205 187 187 151 184 203 196 198 184 210 188 190 178 194 190 189 188 197 217 207 204 207 253 270 241 206 193 193 185 190 185 177 168 193 169 182 169 167 173 124 167 189 169 185
192 197 178 184 198 193 197 196 188 190 207 185 194 198 191 188 184 190 195 212 199 203 236 241 269 220 210 195 181 201 191 170 167 195 171 162 165 163 161 177 170 194 178 166
208 207 194 192 179 195 200 194 193 191 211 185 180 181 195 187 179 200 243 197 205 206 215 254 261 259 205 193 193 192 185 188 168 185 167 179 165 166 168 175 153 167 164 189
206 206 198 209 194 204 198 195 199 205 211 201 178 185 200 201 177 189 212 224 204 200 204 246 258 271 238 201 192 177 183 172 190 191 180 197 161 175 166 177 164 178 182 176
214 212 196 209 203 189 195 198 197 200 202 203 179 183 185 187 194 204 222 223 198 198 199 216 258 262 264 201 184 194 158 184 181 176 192 176 169 174 172 167 183 174 190 175
199 207 208 200 188 206 196 201 207 200 204 190 184 176 184 193 186 208 168 208 199 199 192 221 254 251 260 252 204 190 188 181 179 188 193 173 175 187 179 160 162 179 179 169
204 202 197 208 201 200 207 203 203 200 204 179 186 192 163 147 178 206 218 224 199 193 193 209 243 235 269 258 255 212 190 190 182 187 174 169 169 185 181 175 164 164 173 169
208 221 201 190 212 206 206 207 214 215 220 184 174 182 163 159 199 203 211 213 195 189 198 188 224 242 239 251 260 252 234 199 188 176 176 175 184 175 174 175 195 169 171 181
218 220 199 223 221 208 207 211 199 216 188 194 189 189 168 193 201 189 209 171 203 179 194 181 211 222 240 234 239 267 258 243 191 211 194 176 177 170 186 185 169 167 172 171
217 203 223 214 217 221 214 213 211 196 198 198 182 186 175 180 179 204 191 222 207 186 194 191 179 211 226 245 230 234 257 247 243 236 223 199 183 204 190 183 182 183 187 189
223 207 213 223 219 225 222 215 219 202 201 214 193 192 177 182 199 169 203 216 208 198 196 181 191 194 210 228 230 235 227 231 258 257 240 240 224 222 205 196 177 168 177 190
216 101 194 212 208 219 219 216 230 210 228 218 202 194 185 180 151 188 193 208 209 192 190 184 179 187 206 217 221 228 227 245 225 228 241 252 253 250 249 246 240 243 251 252
233 128 169 217 221 215 215 212 215 208 222 211 208 183 193 177 194 197 197 209 213 197 196 187 184 188 182 198 221 197 214 224 228 231 234 236 239 239 251 234 237 246 238 237
242 211 230 216 214 215 213 213 202 221 203 207 201 192 183 179 202 200 201 207 217 197 196 188 193 170 190 191 200 205 215 205 208 211 218 220 221 221 229 229 234 229 224 228
252 250 240 229 222 222 219 210 213 211 211 215 194 192 187 188 193 193 211 211 212 196 194 191 192 187 190 192 195 194 193 216 214 223 198 201 201 198 210 214 211 212 212 212
239 236 238 239 231 227 226 224 221 214 218 216 210 192 192 200 195 200 218 222 209 203 197 199 194 189 181 185 185 187 194 192 192 195 213 213 218 222 223 219 221 220 223 223
269 246 253 241 248 244 238 232 238 233 226 221 221 215 209 212 196 205 227 222 202 202 199 191 197 201 181 191 196 195 196 187 182 185 189 189 187 189 192 193 191 198 199 200
292 284 278 262 251 250 237 227 238 240 242 244 245 239 231 227 216 227 221 227 194 204 199 191 192 191 190 186 192 194 199 200 186 181 181 196 195 194 193 183 192 195 192 196
145 234 283 301 258 253 245 252 248 246 244 244 240 231 232 230 232 235 217 223 205 201 206 200 186 198 183 181 186 183 190 189 209 200 190 187 186 192 192 193 188 187 192 195
139 135 292 293 312 320 317 315 295 284 282 285 290 290 245 235 235 224 228 234 228 224 207 193 200 189 194 192 186 187 190 191 188 166 185 183 187 184 182 187 183 187 197 193
291 312 313 298 297 210 295 302 304 141 297 290 289 286 280 277 270 255 251 258 216 206 214 203 194 199 191 193 196 198 192 186 195 188 187 191 194 189 185 183 186 185 183 184
322 330 388 410 374 284 277 283 287 291 291 287 293 304 298 280 276 263 251 259 255 235 213 211 201 193 200 193 200 189 195 191 194 207 195 203 201 200 193 187 179 188 190 196
315 333 353 336 313 306 273 265 235 261 261 310 271 291 286 282 274 263 258 258 247 241 224 230 206 201 194 200 199 200 196 205 212 190 182 184 213 189 193 196 198 193 199 197
308 338 313 303 292 284 294 265 258 285 276 264 290 288 278 269 262 257 253 246 248 231 227 222 212 205 202 195 200 191 200 172 190 176 172 172 197 181 177 180 191 198 203 195
300 315 305 292 283 273 271 269 284 272 280 292 268 287 275 259 259 253 251 247 241 238 228 220 229 211 210 203 203 202 200 199 178 171 167 199 198 193 201 205 199 191 202 206
283 297 287 278 268 272 278 291 284 255 268 285 272 269 269 256 252 250 248 245 248 234 235 234 231 221 215 209 192 196 193 184 198 189 192 193 200 204 207 204 205 196 203 191
Wind_Speed
66 58 57 65 62 56 49 42 46 36 21 26 41 34 28 33 31 32 33 21 20 20 25 17 29 44 45 52 48 53 50 40 27 53 35 50 34 33 41 43 35 50 34 46
67 57 62 69 61 57 53 43 50 30 17 33 23 32 30 36 33 28 26 28 21 17 31 19 16 50 49 57 40 58 60 36 31 59 43 27 31 28 29 53 44 56 51 34
69 63 65 65 61 59 57 47 53 35 23 36 40 42 30 39 33 35 36 23 24 19 26 23 18 24 54 56 56 55 50 57 34 60 39 59 35 37 43 51 26 39 57 63
69 65 65 65 64 63 55 56 48 38 34 30 39 34 25 28 33 31 34 30 25 17 20 26 18 13 21 63 59 35 60 42 65 65 60 59 33 57 40 58 38 60 59 53
66 67 69 67 65 64 57 56 45 37 38 29 44 31 45 36 31 40 38 28 23 19 17 21 18 14 10 61 45 64 40 57 57 56 62 55 53 64 59 45 69 64 59 68
74 69 68 65 64 65 61 60 54 42 39 25 45 35 47 33 35 42 29 24 24 23 15 26 18 17 12 21 67 62 64 58 59 67 64 65 72 63 60 37 38 62 65 60
75 71 70 69 66 65 65 63 47 46 35 47 39 20 35 31 30 39 39 28 23 23 17 24 23 16 8 11 18 74 66 68 63 71 59 48 51 73 72 69 49 52 66 68
73 72 70 67 72 68 69 66 57 47 47 46 50 35 38 32 29 38 38 26 25 25 21 14 20 18 15 11 14 20 57 78 71 52 55 67 79 72 68 75 80 66 70 81
72 70 70 71 75 71 69 65 52 52 47 42 35 35 53 45 26 39 42 33 28 27 21 24 19 17 15 15 14 16 21 31 47 84 83 59 64 53 80 86 59 58 75 74
72 71 71 69 68 72 70 70 62 43 43 39 49 44 55 52 31 29 43 36 31 28 26 19 22 18 16 13 15 15 18 26 29 35 52 80 63 57 83 78 81 86 90 91
73 72 70 67 67 70 72 70 68 50 49 43 47 32 56 52 27 40 37 40 34 30 28 26 23 24 18 16 12 14 18 20 22 26 33 36 50 53 58 79 59 50 68 90
78 21 63 70 68 70 66 64 66 53 51 44 35 37 44 52 37 39 40 39 37 39 32 30 28 24 23 17 14 13 14 16 21 22 24 24 28 32 34 34 38 42 40 41
85 29 50 77 77 73 69 66 62 58 51 40 38 51 41 55 50 40 42 45 40 44 36 33 30 28 30 27 16 19 17 13 14 16 19 20 22 25 25 33 35 34 37 38
85 65 80 75 79 75 70 69 68 63 51 49 39 48 55 58 59 45 43 46 46 46 40 38 35 37 31 33 25 22 21 23 22 23 24 25 27 28 24 27 25 27 30 29
81 80 82 83 83 84 78 71 71 63 54 50 56 54 57 56 60 55 48 45 51 51 47 42 39 35 33 33 29 24 25 18 21 20 30 31 31 33 33 31 33 34 35 35
76 76 80 82 86 87 86 83 82 73 73 56 59 56 59 58 63 61 51 45 52 56 50 48 44 43 37 36 34 34 29 28 28 25 16 17 19 20 19 21 22 26 29 32
75 79 84 82 87 89 85 87 90 87 81 73 68 71 64 66 66 67 57 47 57 58 55 53 51 48 41 39 38 39 35 36 36 32 32 32 34 34 35 37 39 39 41 43
62 73 77 81 84 83 72 79 86 82 79 81 79 78 76 75 72 73 58 51 66 64 62 57 55 49 46 45 44 43 43 41 38 39 40 35 36 36 38 41 41 44 47 48
22 45 53 66 80 73 75 82 84 86 83 81 76 71 69 69 67 72 66 60 70 68 64 61 53 58 47 45 43 40 44 39 40 39 42 43 45 43 42 44 46 49 53 54
31 31 52 53 53 52 57 67 72 80 75 77 70 72 71 72 66 70 70 66 62 65 67 60 61 57 57 55 48 49 51 46 46 40 47 47 48 51 50 52 53 56 57 59
51 45 46 49 49 30 54 55 57 21 60 65 63 63 64 65 66 72 69 66 72 71 70 67 64 64 60 59 59 59 55 47 53 49 49 49 50 55 56 57 60 62 64 65
33 26 16 16 28 51 55 53 54 46 49 55 54 54 56 57 60 64 66 68 65 69 70 71 69 66 69 61 63 51 57 50 47 56 44 54 58 58 60 61 62 67 70 72
24 16 21 30 34 41 57 55 30 47 58 42 51 52 52 53 57 61 63 66 65 67 72 69 74 73 69 71 65 65 62 69 72 46 47 54 64 58 60 65 69 72 73 75
23 13 35 42 48 52 46 40 57 57 58 54 49 51 53 55 58 62 65 70 64 69 71 72 78 77 74 63 67 51 60 47 51 54 56 57 67 59 62 66 72 74 76 79
20 20 41 48 48 53 55 50 51 50 52 50 49 52 55 57 59 63 65 67 66 70 75 77 78 77 76 75 75 71 70 66 58 54 57 69 70 69 72 74 78 77 81 83
24 27 49 53 55 60 59 55 52 49 52 48 50 50 54 56 59 61 64 68 66 72 74 76 75 76 80 79 64 62 60 61 74 62 65 67 73 74 74 73 77 80 84 80
Wind_Direction
250 264 261 263 270 264 270 273 271 275 252 258 270 276 268 271 277 290 300 303 305 321 323 311 228 216 214 215 220 213 220 224 244 221 243 234 261 266 276 236 282 260 282 255
262 249 259 263 259 267 267 267 265 259 255 253 263 278 267 272 270 278 284 301 294 316 322 297 310 217 214 212 229 214 217 241 252 221 244 254 261 267 267 275 286 250 276 299
247 244 250 255 266 261 261 263 263 263 268 254 256 266 260 268 265 290 319 291 300 318 322 326 311 252 214 215 217 222 220 222 255 231 257 244 270 272 279 271 243 265 269 269
243 245 248 244 253 254 257 258 263 270 275 264 250 265 275 288 265 276 306 302 297 300 314 324 314 318 236 212 218 237 221 244 229 231 245 233 272 265 282 266 291 274 269 278
241 240 244 244 247 256 256 260 260 257 265 249 242 246 266 264 281 300 316 297 287 290 302 308 309 300 295 217 232 220 240 232 239 245 237 244 266 264 272 281 257 276 260 281
242 239 243 243 249 246 253 256 256 255 254 225 247 240 265 270 270 305 255 283 285 286 280 322 317 301 257 236 221 223 227 236 242 236 238 250 258 252 259 282 287 266 271 286
238 240 243 243 245 250 249 250 249 251 244 228 241 208 253 244 273 301 312 287 277 281 281 317 325 311 295 242 242 225 229 233 239 236 251 259 261 255 260 263 282 285 276 283
234 235 240 248 243 244 245 250 251 250 252 222 247 227 258 248 291 296 304 279 269 273 290 281 318 311 293 270 248 236 233 230 237 248 247 245 248 260 264 263 253 273 278 270
230 236 239 240 239 243 245 247 240 246 225 225 222 220 257 274 280 264 300 263 267 258 275 259 299 309 292 275 262 250 240 242 245 235 240 249 251 263 256 260 272 278 275 278
228 231 236 238 241 244 242 243 243 222 228 215 226 225 244 257 260 285 265 288 263 260 265 273 262 300 305 279 266 257 248 248 248 246 244 244 254 257 255 260 258 263 265 267
227 234 234 237 237 241 241 243 246 224 223 234 229 221 239 257 260 255 283 288 260 256 262 254 275 280 292 290 272 258 248 251 246 245 250 252 252 256 259 258 266 270 271 267
229 255 233 233 236 244 239 239 238 234 243 239 224 227 231 251 246 248 266 276 253 255 253 255 258 270 283 283 277 265 259 248 250 254 260 258 256 255 257 262 261 263 267 271
230 249 234 236 238 239 241 238 238 230 236 230 229 229 236 246 259 246 259 276 245 249 244 249 253 264 263 275 282 269 276 259 252 248 251 253 255 258 262 266 269 269 271 272
230 236 228 230 238 238 238 240 235 241 220 234 216 224 234 241 264 250 249 268 252 246 247 246 249 254 263 269 269 264 275 275 272 266 260 258 254 251 250 252 256 262 271 274
228 230 230 230 234 239 238 237 242 239 235 232 228 219 229 235 248 244 257 257 252 245 248 246 249 251 255 261 264 261 265 274 259 264 270 271 269 265 265 262 266 268 270 274
227 226 230 231 232 235 239 242 241 244 243 235 236 223 228 243 245 254 259 258 242 240 243 246 244 246 246 251 258 260 251 256 262 263 274 278 284 287 287 282 287 286 288 286
229 228 229 227 231 232 234 241 243 241 242 241 239 243 239 246 239 254 256 242 233 236 240 248 246 246 251 256 257 261 255 256 260 262 265 268 270 276 281 282 282 284 284 285
233 233 232 230 230 231 230 237 242 243 242 245 245 247 247 247 247 252 242 236 238 232 235 241 248 249 249 255 261 258 261 258 262 267 270 270 270 270 274 277 280 282 284 283
246 231 232 232 234 234 235 239 240 243 243 243 242 241 240 242 243 247 239 229 229 237 231 236 254 248 255 258 257 262 263 262 266 266 274 277 279 281 282 282 280 282 284 284
226 230 234 233 234 234 233 238 240 241 242 244 242 241 240 241 240 243 244 234 233 230 233 246 239 253 253 252 257 261 265 267 266 274 273 278 279 282 284 284 285 285 285 287
239 241 240 232 228 228 225 231 234 237 237 241 241 240 238 238 237 240 241 241 230 236 231 237 248 243 254 254 255 258 261 264 269 269 272 274 272 273 278 282 284 285 286 288
236 241 230 208 200 220 223 225 230 228 230 234 236 233 230 232 230 231 235 233 226 228 234 234 243 252 248 259 254 260 261 264 272 271 281 277 276 275 277 283 286 288 289 290
235 230 198 182 188 207 220 223 213 216 228 233 228 228 223 221 223 227 230 228 227 225 230 228 238 244 255 254 257 257 263 265 268 274 265 275 281 280 286 290 289 289 289 290
228 232 192 190 204 213 209 211 223 213 223 227 223 220 218 216 220 224 224 227 225 227 230 232 235 244 248 261 259 264 263 259 265 262 272 277 282 276 279 284 287 288 289 289
220 224 206 201 207 216 224 219 209 218 222 223 223 219 217 218 219 222 227 227 225 225 230 236 232 243 245 253 256 261 260 266 269 276 283 276 278 278 283 284 282 285 288 288
223 214 206 211 219 219 222 214 215 221 226 225 223 221 218 220 221 225 227 231 226 232 234 237 238 239 243 248 263 266 265 267 267 270 272 274 277 282 283 284 286 286 288 291